Weather History for Pittsfield, IL

Change the Weather History Date:

Tuesday, May 6, 2014

  Actual Average (KUIN) Record (KUIN)
Temperature  
Mean Temperature 68 °F 60 °F  
Max Temperature 84 °F 70 °F 91 °F (1934)
Min Temperature 52 °F 50 °F 32 °F (1989)
Degree Days  
Heating Degree Days 0 6  
Month to date heating degree days 41  
Since 1 July heating degree days 5471  
Cooling Degree Days 3 1  
Month to date cooling degree days 6  
Year to date cooling degree days 24  
Growing Degree Days 18 (Base 50)    
Moisture  
Dew Point 51 °F    
Average Humidity 50    
Maximum Humidity 65    
Minimum Humidity 41    
Precipitation  
Precipitation 0.00 in 0.14 in 1.65 in (2002)
Month to date precipitation 0.80  
Year to date precipitation 10.35  
Sea Level Pressure  
Sea Level Pressure 29.76 in    
Wind  
Wind Speed 12 mph (ESE)    
Max Wind Speed 20 mph    
Max Gust Speed 24 mph    
Visibility 10 miles    
Events      
T = Trace of Precipitation, MM = Missing Value Source: NWS Daily Summary

Daily Weather History Graph

Daily Weather History Graph

Search for Another Location

Airport:

Trip Planner

Search our weather history database for the weather conditions in past years. The results will help you decide how hot, cold, wet, or windy it might be!

Date:

Astronomy

May. 06, 2014 Rise Set
Actual Time 5:57 AM CDT 8:02 PM CDT
Civil Twilight 5:28 AM CDT 8:31 PM CDT
Nautical Twilight 4:52 AM CDT 9:08 PM CDT
Astronomical Twilight 4:13 AM CDT 9:47 PM CDT
Moon 12:13 PM CDT (5/6) 1:21 AM CDT (5/6)
Length of Visible Light 15h 03m
Length of Day
14h 04m
Waxing Crescent, 46% of the Moon is Illuminated
May 6
Waxing Crescent
May 6
First Quarter
May 14
Full
May 21
Last Quarter
May 28
New

Hourly Weather History & Observations

Time (CDT) Temp. Heat Index Dew Point Humidity Pressure Visibility Wind Dir Wind Speed Gust Speed Precip Events Conditions
12:15 AM 61.2 °F - 43.7 °F 53% 29.84 in 10.0 mi NE 10.4 mph 16.1 mph N/A   Clear
12:35 AM 61.2 °F - 43.7 °F 53% 29.84 in 10.0 mi ENE 10.4 mph 18.4 mph N/A   Clear
12:55 AM 60.3 °F - 43.7 °F 54% 29.84 in 10.0 mi NE 12.7 mph - N/A   Clear
1:15 AM 58.8 °F - 43.0 °F 56% 29.83 in 10.0 mi NE 12.7 mph - N/A   Clear
1:35 AM 57.2 °F - 41.9 °F 57% 29.83 in 10.0 mi NE 10.4 mph 18.4 mph N/A   Clear
1:55 AM 56.1 °F - 41.9 °F 59% 29.83 in 10.0 mi NE 12.7 mph 16.1 mph N/A   Clear
2:15 AM 55.4 °F - 41.4 °F 59% 29.83 in 10.0 mi NE 10.4 mph 16.1 mph N/A   Clear
2:35 AM 54.7 °F - 41.4 °F 61% 29.83 in 10.0 mi NE 10.4 mph - N/A   Clear
6:55 AM 52.0 °F - 40.6 °F 65% 29.87 in 10.0 mi ENE 10.4 mph - N/A   Clear
7:15 AM 52.9 °F - 41.0 °F 64% 29.87 in 10.0 mi ENE 9.2 mph - N/A   Clear
7:35 AM 53.6 °F - 40.8 °F 62% 29.87 in 10.0 mi ENE 10.4 mph - N/A   Clear
7:55 AM 54.5 °F - 41.2 °F 61% 29.86 in 10.0 mi ENE 11.5 mph 17.3 mph N/A   Clear
8:15 AM 55.9 °F - 41.5 °F 58% 29.86 in 10.0 mi ENE 11.5 mph 18.4 mph N/A   Clear
8:35 AM 57.2 °F - 42.8 °F 59% 29.86 in 10.0 mi East 11.5 mph 16.1 mph N/A   Clear
9:15 AM 59.9 °F - 43.0 °F 54% 29.85 in 10.0 mi East 9.2 mph 18.4 mph N/A   Clear
9:35 AM 61.7 °F - 44.4 °F 53% 29.85 in 10.0 mi East 11.5 mph - N/A   Clear
9:55 AM 63.1 °F - 45.3 °F 52% 29.85 in 10.0 mi East 9.2 mph - N/A   Clear
10:15 AM 64.8 °F - 46.2 °F 51% 29.85 in 10.0 mi East 9.2 mph - N/A   Clear
10:35 AM 65.7 °F - 46.4 °F 50% 29.83 in 10.0 mi East 10.4 mph 17.3 mph N/A   Clear
10:55 AM 67.1 °F - 46.8 °F 48% 29.83 in 10.0 mi East 11.5 mph 18.4 mph N/A   Clear
11:15 AM 68.2 °F - 48.2 °F 49% 29.83 in 10.0 mi ENE 9.2 mph 16.1 mph N/A   Clear
11:35 AM 69.8 °F - 48.4 °F 46% 29.83 in 10.0 mi East 9.2 mph - N/A   Clear
11:55 AM 71.4 °F - 49.6 °F 46% 29.82 in 10.0 mi East 11.5 mph - N/A   Clear
12:15 PM 72.1 °F - 49.5 °F 45% 29.81 in 10.0 mi East 10.4 mph - N/A   Clear
12:35 PM 73.4 °F - 50.0 °F 44% 29.80 in 10.0 mi East 8.1 mph 17.3 mph N/A   Clear
12:55 PM 74.5 °F - 50.4 °F 43% 29.79 in 10.0 mi East 9.2 mph 16.1 mph N/A   Clear
1:15 PM 75.9 °F - 51.3 °F 42% 29.78 in 10.0 mi East 12.7 mph - N/A   Clear
1:35 PM 76.8 °F - 51.6 °F 41% 29.77 in 10.0 mi East 12.7 mph 17.3 mph N/A   Clear
1:55 PM 77.2 °F - 52.7 °F 42% 29.76 in 10.0 mi ESE 12.7 mph - N/A   Clear
2:15 PM 78.8 °F - 53.2 °F 41% 29.75 in 10.0 mi ESE 10.4 mph 16.1 mph N/A   Clear
2:35 PM 79.9 °F - 54.1 °F 41% 29.74 in 10.0 mi ESE 16.1 mph 20.7 mph N/A   Clear
3:15 PM 80.4 °F 80.5 °F 55.8 °F 43% 29.72 in 10.0 mi ESE 13.8 mph 20.7 mph N/A   Clear
3:35 PM 80.8 °F 80.7 °F 55.4 °F 42% 29.71 in 10.0 mi ESE 15.0 mph - N/A   Clear
3:55 PM 82.4 °F 81.9 °F 56.3 °F 41% 29.70 in 10.0 mi ESE 19.6 mph 24.2 mph N/A   Clear
4:15 PM 83.1 °F 82.6 °F 57.2 °F 41% 29.70 in 10.0 mi ESE 17.3 mph 21.9 mph N/A   Clear
4:35 PM 82.9 °F 82.6 °F 57.6 °F 42% 29.69 in 10.0 mi SE 15.0 mph 23.0 mph N/A   Clear
4:55 PM 82.9 °F 82.6 °F 57.4 °F 42% 29.69 in 10.0 mi SE 17.3 mph - N/A   Clear
5:15 PM 83.3 °F 83.1 °F 58.5 °F 43% 29.69 in 10.0 mi SE 15.0 mph - N/A   Clear
5:35 PM 83.7 °F 83.4 °F 58.8 °F 43% 29.69 in 10.0 mi SE 15.0 mph - N/A   Clear
5:55 PM 84.2 °F 84.2 °F 59.9 °F 44% 29.68 in 10.0 mi ESE 11.5 mph - N/A   Clear
6:15 PM 84.0 °F 83.6 °F 58.6 °F 42% 29.67 in 10.0 mi SE 15.0 mph 21.9 mph N/A   Clear
6:35 PM 83.5 °F 83.1 °F 58.1 °F 42% 29.67 in 10.0 mi SE 16.1 mph 21.9 mph N/A   Clear
6:55 PM 82.8 °F 82.5 °F 58.5 °F 43% 29.67 in 10.0 mi SE 10.4 mph 13.8 mph N/A   Clear
7:15 PM 82.2 °F 82.1 °F 58.5 °F 44% 29.66 in 10.0 mi SE 13.8 mph 21.9 mph N/A   Clear
7:35 PM 81.1 °F 81.4 °F 58.3 °F 46% 29.66 in 10.0 mi SE 18.4 mph 23.0 mph N/A   Clear
7:55 PM 80.4 °F 80.6 °F 56.7 °F 44% 29.66 in 10.0 mi SE 16.1 mph 24.2 mph N/A   Clear
8:15 PM 79.2 °F - 57.6 °F 47% 29.67 in 10.0 mi SE 12.7 mph - N/A   Clear
8:35 PM 78.4 °F - 57.7 °F 49% 29.67 in 10.0 mi SE 11.5 mph - N/A   Clear
8:55 PM 77.9 °F - 58.1 °F 50% 29.67 in 10.0 mi SE 13.8 mph 17.3 mph N/A   Clear
9:15 PM 77.0 °F - 58.3 °F 52% 29.67 in 10.0 mi SE 11.5 mph - N/A   Clear
9:35 PM 76.6 °F - 58.5 °F 53% 29.67 in 10.0 mi SE 12.7 mph - N/A   Clear
9:55 PM 75.9 °F - 58.8 °F 55% 29.68 in 10.0 mi SE 10.4 mph - N/A   Clear
10:15 PM 75.0 °F - 59.0 °F 57% 29.68 in 10.0 mi SE 9.2 mph - N/A   Clear
10:35 PM 74.8 °F - 59.0 °F 58% 29.68 in 10.0 mi SE 11.5 mph - N/A   Clear
10:55 PM 75.2 °F - 59.0 °F 57% 29.69 in 10.0 mi SSE 6.9 mph - N/A   Clear
11:15 PM 73.4 °F - 58.6 °F 60% 29.70 in 10.0 mi SSE 6.9 mph - N/A   Clear
11:35 PM 74.5 °F - 57.2 °F 55% 29.70 in 10.0 mi South 9.2 mph - N/A   Clear
11:55 PM 75.6 °F - 56.3 °F 51% 29.71 in 10.0 mi South 10.4 mph 17.3 mph N/A   Clear